Regional Weather Roundup
Issued by NWS Sterling, VA

Home | Current Version | Previous Version | Text Only | Print | Product List | Glossary Off
Versions: 1 2 3 4 5 6 7 8 9 10 11 12 13 14 15 16 17 18 19 20 21 22 23 24 25 26 27 28

000
ASUS41 KLWX 200111
RWRLWX

REGIONAL WEATHER ROUNDUP
NATIONAL WEATHER SERVICE BALTIMORE MD/WASHINGTON DC
900 PM EDT SAT AUG 19 2017

Note: "FAIR" indicates few or no clouds below 12,000 feet
with no significant weather and/or obstructions to visibility.
 TC=TEMPERATURE CELSIUS

 * =Non NWS site. Station does not report precipitation (e.g. rain,
    snow, etc.), thunder, or fog.

DCZ001-MDZ009-015-VAZ040>042-051-053>054-200200-
WASHINGTON METRO

CITY           SKY/WX    TMP DP  RH WIND       PRES   REMARKS
WASHINGTON NAT PTCLDY    83  71  67 S6        29.91R
DULLES         PTCLDY    77  70  79 S3        29.92R
ANDREWS AFB    CLEAR     77  69  74 S7        29.91R
FT BELVOIR     CLEAR     75  72  90 CALM      29.91R
QUANTICO       CLEAR     81  75  82 CALM      29.92R
COLLEGE PARK*  CLEAR     76  69  80 CALM      29.90S
LEESBURG*      CLEAR     79  73  83 CALM      29.94R
MANASSAS*      CLEAR     78  72  81 CALM      29.93R
GAITHERSBURG*  CLEAR     79  67  66 CALM      29.94R

$$

MDZ006>007-011-014-200200-
BALTIMORE METRO

CITY           SKY/WX    TMP DP  RH WIND       PRES   REMARKS
BWI AIRPORT    PTCLDY    76  70  82 S3        29.90R
MD SCIENCE CTR   N/A     85  67  54 MISG      29.89R
MARTIN STATE   PTCLDY    81  75  83 S3        29.90S
ANNAPOLIS      CLEAR     82  76  81 CALM      29.90R
FORT MEADE*    CLEAR     72  72 100 CALM      29.93R

$$

MDZ012-015-019>023-200200-
MARYLAND EASTERN SHORE

CITY           SKY/WX    TMP DP  RH WIND       PRES   REMARKS
OCEAN CITY     PTCLDY    76  73  91 W3        29.93R
SALISBURY      CLEAR     76  72  87 CALM      29.92R
BAY BRIDGE AP* CLEAR     81  73  78 S6        29.90S
CAMBRIDGE*     CLEAR     75  73  94 CALM      29.92R

$$

MDZ017>025-200200-
SOUTHERN MARYLAND

CITY           SKY/WX    TMP DP  RH WIND       PRES   REMARKS
PATUXENT RIVER CLEAR     77  72  84 S5        29.92R
ST INIGOES     CLEAR     77  72  84 SE5       29.91R
LEONARDTOWN*   CLEAR     73  70  88 CALM      29.94R

$$

MDZ003>005-200200-
NORTH CENTRAL MARYLAND

CITY           SKY/WX    TMP DP  RH WIND       PRES   REMARKS
FREDERICK*     NOT AVBL
HAGERSTOWN APT CLOUDY    70  65  84 S6        29.97R
WESTMINSTER*   HVY RAIN  66  63  88 NW10G37   30.00R

$$

MDZ501>502-200200-
WESTERN MARYLAND

CITY           SKY/WX    TMP DP  RH WIND       PRES   REMARKS
OAKLAND*       CLOUDY    61  55  82 W3        30.05S
CUMBERLAND*    CLOUDY    68  61  77 CALM      30.02F

$$

VAZ025>031-200200-
SHENANDOAH VALLEY

CITY           SKY/WX    TMP DP  RH WIND       PRES   REMARKS
WINCHESTER*    CLOUDY    73  55  53 NW17G29   29.96R
FRONT ROYAL*   MOCLDY    68  63  83 SW9       29.96R
LURAY*         MOCLDY    73  63  68 NE7       29.97R
NEW MARKET*    CLEAR     72  67  83 CALM      29.95R
STAUNTON*      PTCLDY    76  65  68 CALM      29.99R
WAYNESBORO*    CLEAR     75  65  70 SW5       30.00R

$$

WVZ021-048>050-054>055-200200-
EASTERN WEST VIRGINIA PANHANDLE

CITY           SKY/WX    TMP DP  RH WIND       PRES   REMARKS
MARTINSBURG    CLOUDY    71  60  68 N7        29.96R
PETERSBURG*    LGT RAIN  74  68  82 CALM      29.99R

$$

VAZ036>039-050-200200-
CENTRAL FOOTHILLS

CITY           SKY/WX    TMP DP  RH WIND       PRES   REMARKS
CHARLOTTESVILL PTCLDY    79  65  62 CALM      29.95R
CULPEPER*      CLEAR     73  68  84 CALM      29.94R
ORANGE*        CLEAR     73  68  83 CALM      29.93R
GORDONSVILLE*  CLEAR     74  69  86 CALM      29.94R
WARRENTON*     CLEAR     73  67  79 CALM      29.93R

$$

VAZ055>057-200200-
NORTH AND CENTRAL PIEDMONT

CITY           SKY/WX    TMP DP  RH WIND       PRES   REMARKS
FREDERICKSBRG* CLEAR     77  73  85 CALM      29.91R
STAFFORD*      CLEAR     72  72 100 CALM      29.96R

$$

NCZ024-NYZ072-PAZ021-071-VAZ022-071-200200-
OTHER REGIONAL OBSERVATIONS

CITY           SKY/WX    TMP DP  RH WIND       PRES   REMARKS
NEW YORK CITY  CLEAR     80  63  55 VRB5      29.89R
PHILADELPHIA   PTCLDY    82  67  60 SW8       29.89R
PITTSBURGH     PTCLDY    66  65  96 VRB3      29.99R
ROANOKE        PTCLDY    80  64  58 CALM      30.01R
RICHMOND       PTCLDY    77  72  84 S5        29.93R
RALEIGH        PTCLDY    77  72  84 CALM      29.96R

$$

ANZ530>537-200200-
MARINE OBSERVATIONS

STATION/POSITION TIME  TEMP    WIND        PRES
                       AIR SEA DIR/SP/G
                 (UTC) (F)     (DEG/KT/KT) (MB)
THOMAS PT LIGHT  0100   82 81  220/ 10/ 11   N/A
BALT KEY BRIDGE  0048   82     190/  6/  8 1012.1R
COVE POINT       0048   80     230/  6/  6 1013.7R
LEWISETTA        0048   80 84  190/  6/  7 1013.1R
SOLOMONS ISLAND  0048   80 83  220/  2/  3   N/A
PINEY POINT      0048          230/  6/  6   N/A

$$





USA.gov is the U.S. government's official web portal to all federal, state and local government web resources and services.